Погода в Верхнедвинске

Погода в Верхнедвинске : погода сейчас, прогноз погоды и архив. Всё, что Вы хотите узнать о погоде в Верхнедвинске!

Хотите узнать прогноз погоды в Верхнедвинске? Тогда Вам сюда: Погода в Верхнедвинске

Поиск расширенной информации на нашем сайте:

Другие новости

Новости СМИ2

Главная страница сайта

Новости сайта

02.10.2013

Напоминаем, что на нашем новом сайте вы можете получить высокодетализированные прогнозы погоды по пунктам России, СНГ и мира (включающие важные для авиации метеовеличины, такие как направление и скорость ветра, видимость, явления погоды, количество и форма облачности, нижняя и верхняя граница облачности), а также ознакомиться с разнообразными материалами по авиационной метеорологии и подборкой полезных ссылок на эту тему.

Сайт Метеоцентр.Азия посвящён разработке технологий оптимизации авиаметеорологического обслуживания, включая проектирование и перспективное создание нескольких автоматизированных авиаметеорологических систем:
- система выпуска высокодетальных прогностических карт явлений погоды для нижнего воздушного пространства по России и ближнему зарубежью;
- система верификации прогнозов TAF (выпускаемых синоптиками официальных АМСГ РФ и ближнего зарубежья) и AUTOTAF (выпускаемых сайтом Метеоцентр.Азия) - выявление ошибок, онлайн-сопоставление с фактической погодой METAR, автоматическое внесение коррективов в прогнозы при резком отклонении фактической погоды от прогноза, подсчёт оправдываемости прогнозов по элементам и в целом;
- система обработки, анализа и отображения авиаметеорологической информации для применения провайдерами метеорологической информации.


Погода в Верхнедвинске - сегодня

Время (UTC), дата Ветер
(°,м/с) 
Видим.   Явления Облачность Т
(°С)
Тd
(°С)
f(%) Тe
(°С)
Pmin
(гПа)
dP
(гПа)
Po
(мм)
O2
(г/м3)
Тmin Tmax R s Состояние
почвы
15 18.02.17 290 (З) 12000 м    8/1 600 м верхняя 
[Sc|Ci fib]
+1.7 -1.7 78 1016.7  0.6  750  301           
18 18.02.17 260 (З) 12000 м    ясно 
-0.6 -2.1 90 -2  1017.6  0.8  751  303    +2.8    11   
21 18.02.17 260 (З) 10 км    10/10 210 м 
[St]
-0.3 -1.8 90 -3  1017.8  0.2  751  303           
03 19.02.17 240 (ЮЗ) 10 км    10/10 210 м 
[St]
+0.5 -0.6 92 -1  1016.3  -0.8  750  302        11   
06 19.02.17 230 (ЮЗ) 5{10}  10 км    10/10 240 м 
[St]
+1 -0.7 88 -2  1014.7  -1.6  749  301  -0.9      11  равномерный
мокрый или
старый снег
100% 
09 19.02.17 240 (ЮЗ) 6-11{13}  7000 м  слаб. морось  10/10 240 м 
[St]
+1 -0.1 92 -2  1013.6  -1  748  300           
12 19.02.17 240 (ЮЗ) 6-11{14}  15000 м  {морось}  10/10 450 м 
[St]
+1.7 -1.1 82 -1  1011.5  -2.1  746  299           
15 19.02.17 240 (ЮЗ) 6-11{13}  6000 м  слаб. дождь  10/10 330 м 
[Frnb|Ns]
+1.3 -0.1 90 -2  1010.6  -0.9  746  299      0.0     
18 19.02.17 230 (ЮЗ) 6-10{12}  10 км  {дождь}  10/10 300 м 
[St]
+1.3 -0.7 86 -2  1009.9  -0.7  745  299    +1.8  0.1  11   
03 20.02.17 230 (ЮЗ) 6-10{12}  8000 м  дымка{морось}  10/10 180 м 
[St]
+2 +0.7 91 -1  1006.4  -0.9  743  297      0.0  10   
06 20.02.17 220 (ЮЗ) 4{14}  6000 м  слаб. морось  10/10 210 м 
[St]
+2.2 +1.2 93 1005.2  -1.2  742  296  +1.3    0.0  мокрый или
старый снег
50-90% 
09 20.02.17 240 (ЮЗ) 5{11}  8000 м  дымка{морось}  10/10 330 м 
[St]
+2.5 +0.6 87 1003.4  -1.6  740  295           
15 20.02.17 220 (ЮЗ) 6-11{13}  6000 м  слаб. дождь  10/10 300 м 
[Frnb|Ns]
+2.4 +0.8 89 -1  998.1  -2.5  736  294      0.3     
18 20.02.17 210 (ЮЗ) 6-11{13}  6000 м  дождь  10/10 270 м 
[Frnb|Ns]
+1.9 +0.6 91 -1  995.1  -3  734  294    +3.1  0.9   
00 21.02.17 240 (ЮЗ) 4{12}  6000 м  слаб. дождь{снег}  10/10 240 м 
[Frnb|Ns]
+1.7 +0.6 92 988.4  -2.7  729  292           
03 21.02.17 220 (ЮЗ) 3{10}  4800 м  слаб. дождь  10/10 150 м 
[Frnb|Ns]
+2.3 +1.5 94 +1  985.9  -2.4  727  290       
06 21.02.17 220 (ЮЗ) 5000 м  слаб. дождь  10/10 100 м 
[Frnb|Ns]
+1.9 +1.4 96 984.3  -1.7  726  290         
09 21.02.17 280 (З) 6000 м  слаб. дождь  10/10 180 м 
[Frnb|Ns]
+2.8 +2.3 97 +1  984.8  0.7  727  289           
18 21.02.17 310 (СЗ) 3500 м  слаб. снег{дождь}  10/10 240 м 
[Frnb|Ns]
+1 +0.5 96 988.5  1.1  729  293    +3.2   
00 22.02.17 010 (С) 5{10}  4600 м  слаб. снег  10/10 300 м 
[Frnb|Ns]
-2.1 -3.6 89 -5  996.2  4.2  735  299           
03 22.02.17 350 (С) 10 км  {снег}  9/9 600 м 
[Sc]
-2.9 -6.3 77 -6  999.8  3.5  737  301      0.6   
06 22.02.17 040 (СВ) 15000 м  {снег}  9/9 300 м средняя, верхняя 
[St|As trans|Cc]
-3.9 -7.2 78 -5    1.9  739  303      0.6     
09 22.02.17 120 (ЮВ) 15000 м    9/9 630 м 
[Sc]
-4.5 -9.2 70 -6  1001.8  739  304           
15 22.02.17 150 (ЮВ) 15000 м    10/0 средняя 
[Ac As]
-2.8 -6.6 75 -6  994.7  -3.9  734  299           
21 22.02.17 190 (Ю) 3{10}  4800 м  слаб. снег  10/10 210 м 
[Frnb|Ns]
-0.2 -1.1 94 -2  986.4  -2.6  728  293           
Время (UTC), дата Ветер
(°,м/с) 
Видим.   Явления Облачность Т
(°С)
Тd
(°С)
f(%) Тe
(°С)
Pmin
(гПа)
dP
(гПа)
Po
(мм)
O2
(г/м3)
Тmin Tmax R s Состояние
почвы

Для получения пояснительной информации подведите курсор к названию столбца.

ПОГОДА в Верхнедвинске - архив

Всё, что Вы хотите узнать о погоде в Верхнедвинске - удобно и подробно!

Выберите нужную дату (начиная с 1 января 2015* года) и нажмите кнопку "Найти".
Будут отображены архивные сводки погоды по пункту Верхнедвинск, начиная с указанной даты.


Отображать данные в формате CSV (для использования в таблицах Excel)


Внимание! Наш архив погоды предназначен исключительно для личного некоммерческого использования в познавательных целях. Если Вам необходимы официальные справки о состоянии погоды (для производственных, юридических, коммерческих и т.п. целей), обращайтесь в органы Росгидромета.

*Примечание: данная дата относится к архиву по метеостанциям СССР (Россия, СНГ, Балтия).
Архив по метеостанциям Зарубежной Европы и Азии (кроме Китая) хранится 10 дней, по другим регионам земного шара (Китай, Африка, Америка, Австралия, Океания) - 1 день.

Верхнедвинск - район местоположения метеостанции


Название, широта, долгота, высота метеостанции:
Верхнедвинск 55.8°ш. 27.9°д. 132 м над ур. моря [Беларусь]

Дополнительная информация

В oтличие oт бoльшинства пoгoдных сайтoв мы публикуем пoдрoбную метеoинфoрмацию в детальнoм прoфессиoнальнoм фoрмате.

Характеристики температуры и влажнoсти вoздуха измеряются на высoте 2 м в тени вдали oт зданий и деревьев.
Скoрoсть ветра измеряется на высoте 10 м (на урoвне рoста челoвека скoрoсть ветра ниже в 1.5-2 раза). Если метеoстанция нахoдится в гoрoде или в лесу, тo скoрoсть ветра занижена на 2-4 м/с пo сравнению с oткрытым местoм. Скoрoсть ветра над акватoриями крупных рек и oзёр, а также на вершинах хoлмoв на 2-5 м/с выше, чем в oбычных услoвиях.
Атмoсфернoе давление в разных тoчках местнoсти мoжет значительнo oтличаться oт давления на метеoстанции, в зависимoсти oт услoвий рельефа (при пoдъёме на 10 м давление пoнижается примернo на 1 мм рт.ст.).